Location: Friaudour
(46.0460°N, 1.2873°E)
Time: 15:39:57
(UTC+00:00)

Spot 4 Rocket - Pass Details

Date: 01 November 2020
Orbit: 776 x 781 km, 98.7° (Epoch: 29 November)

Event Time Altitude Azimuth Distance (km) Brightness Sun altitude
Rises 04:10:29 0° 6° (N) 3,270 7.4 -25.6°
Reaches altitude 10° 04:12:59 10° 357° (N) 2,339 6.5 -25.2°
Enters shadow 04:14:49 20° 344° (NNW) 1,742 5.7 -24.9°
